Showing default

R2, 46913

Orbit data source: Space-Track

R2, 46913 is a payload satellite owned by NanoAvionics (LT) in LEO that was launched on Sat, 07 Nov 2020 UTC via a PSLV-DL launch vehicle from the Sirharikota (SRI). Payload-class satellites include a variety of spacecraft equipped with specific instruments for various scientific and technological missions. These include communications satellites like Starlink; space stations such as the ISS; scientific satellites like the Hubble; Earth observation satellites from companies like Planet Labs, Umbra, and HawkEye 360; GPS; miniature CubeSats for education and research; and military/defense satellites.

Loading next visibility...
Identifier
46913, 2020-081J
Orbit
LEO
Country
Flag of LTLT / LTU
Related business
Manufacturer
NanoAvionics US
Mission
Operational Commercial Technology
Bus & Motor
CUBESAT 6U, Unknown motor
Mass
6.8 kg wet, 6.8 kg dry
Launch date (UTC)
2020-11-07 (6 years ago)
Launch vehicle
PSLV-DL
Launch site
Sirharikota (SRI)
Object type
Payload
Rocket body
Debris
Shape & HBR
Box, Unknown HBR
Radar Cross Section
0.080 m², Medium (>0.1 m² and < 1m²)

Expand to show TLE details & history
Last TLE update: 16 hours ago

TLE from 16 hours ago
0 R2
1 46913U 20081J   26171.32613774  .00006378  00000-0  24964-3 0  9996
2 46913  36.8983  41.9756 0008985 306.0505  53.9411 15.25465057312462
Epoch: 2026-06-20T07:49Z
TLE epoch observation values (Epoch: 2026-06-20T07:49:38.300Z)
Latitude
-0.00004°
Longitude
16.0236°
Altitude
484.869 km
Speed
7.627 km/s
True Right ascension
02h 47m 54s
True Declination
0° 00' 00"
Sunlit
Object was in daylight at epoch
Visualization orbit readout
Latitude
Unknown
Longitude
Unknown
Altitude
Unknown
Speed
Unknown
Apparent Right ascension
Unknown
Apparent Declination
Unknown
Sunlit
N/A
Visualization observer readout
Local Sidereal Time
10:58:35
Azimuth
Unknown
Elevation
Unknown
Doppler factor
Unknown
Orbital elements
Apogee altitude
498.513 km
Perigee altitude
486.167 km
Semi-major axis
6,870.477 km
Eccentricity
0.0009
Inclination
36.8983°
RAAN
41.9756°
Arg. of periapsis
306.0505°
True anomaly
54.02439°
Mean anomaly
53.9411°
Eccentric anomaly
53.98274°
Mean motion
3.81121 °/min
Orbital period
94.46 mins
BSTAR
0.00024964
Loading maneuver chart data...
Computing Atmospheric mass density...
Loading historical data...
Loading historical data...
Loading historical data...
Loading historical data...
Loading historical data...
Loading historical data...
Loading historical data...

Documentation

Showing up to 5 results
|